Location: Nianha
(10.8000°N, 4.6333°W)
Time: 07:38:13
(UTC+00:00)

Cosmos 2221 - Pass Details

Date: 14 November 2019
Orbit: 592 x 617 km, 82.5° (Epoch: 21 January)

Event Time Altitude Azimuth Distance (km) Brightness Sun altitude
Rises 05:47:29 0° 334° (NNW) 2,877 5.6 -7.0°
Reaches altitude 10° 05:50:04 10° 320° (NW) 1,971 4.6 -6.3°
Maximum altitude 05:53:29 23° 268° (W) 1,325 3.7 -5.5°
Drops below altitude 10° 05:56:54 10° 216° (SW) 1,965 5.0 -4.7°
Sets 05:59:30 0° 201° (SSW) 2,866 5.9 -4.1°
